Flag for U.S.A. Weather past 2 weeks in Midway, Midway Atoll, U.S.A.

Now
82 °F

Clear.


Feels Like: 86 °F
Forecast: 81 / 89 °F
Wind: 12 mph from South

Location: Midway Island Naval Air Facility

Current Time: Aug 23, 2014 at 6:24:44 AM

Latest Report: Aug 23, 2014 at 5:56 AM


Visibility: 10 mi

Pressure: 30.97 "Hg

Humidity: 69%

Dew point: 71 °F

Location of MidwayLocation

Historic Weather in Midway — Graph

°F

Midway temperature yesterday

Maximum temperature yesterday: 91 °F (at 12:56 PM)
Minimum temperature yesterday: 80 °F (at 3:56 AM)
Average temperature yesterday: 85 °F

Past Weeks' High & Low Weather Summary

 TemperatureHumidityPressure
High91 °F (Aug 18, 11:56 AM)94% (Aug 11, 4:56 PM)31.00 "Hg (Aug 11, 4:56 PM)
Low77 °F (Aug 20, 12:56 AM)55% (Aug 20, 8:56 AM)28.05 "Hg (Aug 10, 9:56 PM)
Average83 °F74%30.29 "Hg
* Reported Aug 8 4:44 AM — Aug 23 4:56 AM, Midway, Weather by CustomWeather, © 2014

Note: Actual official high and low records may vary slightly from our data, if they occured in-between our weather recording intervals... More about our weather records

Advertising

Midway weather history for previous 24 hours

 ConditionsComfort  
Time TempWeatherWind HumidityBarometerVisibility
4:56 AM
Aug 23
82 °FPassing clouds.9 mph77%30.97 "Hg10 mi
3:56 AM82 °FClear.5 mph77%30.97 "Hg10 mi
2:56 AM80 °FLight rain. Passing clouds.No wind82%30.98 "Hg9 mi
1:56 AM82 °FClear.9 mph77%30.98 "Hg10 mi
12:56 AM82 °FPassing clouds.10 mph77%30.99 "Hg10 mi
11:56 PM
Aug 22
83 °FPassing clouds.9 mph72%31.00 "Hg10 mi
10:56 PM83 °FClear.9 mph77%31.00 "Hg10 mi
9:56 PM83 °FClear.8 mph77%30.99 "Hg10 mi
8:56 PM83 °FClear.9 mph74%30.97 "Hg10 mi
7:56 PM84 °FClear.7 mph74%30.96 "Hg10 mi
6:56 PM85 °FSunny.9 mph70%30.95 "Hg10 mi
5:56 PM87 °FSunny.9 mph67%30.94 "Hg10 mi
4:56 PM88 °FSunny.10 mph65%30.93 "Hg10 mi
3:56 PM90 °FPassing clouds.10 mph61%30.93 "Hg10 mi
2:56 PM90 °FSunny.12 mph59%30.93 "Hg10 mi
1:56 PM91 °FSunny.13 mph58%30.94 "Hg10 mi
12:56 PM91 °FPassing clouds.13 mph59%30.95 "Hg10 mi
11:56 AM89 °FPassing clouds.14 mph63%30.95 "Hg10 mi
10:56 AM89 °FSunny.14 mph61%30.95 "Hg10 mi
9:56 AM88 °FPassing clouds.13 mph65%30.95 "Hg10 mi
8:56 AM87 °FSunny.14 mph65%30.94 "Hg10 mi
7:56 AM84 °FPassing clouds.15 mph72%30.93 "Hg10 mi
6:56 AM82 °FSunny.15 mph77%30.91 "Hg10 mi
Weather by CustomWeather, © 2014

See weather overviewHow to use our weather pages